Back to catalog

STARLINK-36640

AliveCommunicationsSSO
NORAD 67600·PAYLOAD·🇺🇸 United States

Launched Jan 29, 2026 from Vandenberg Space Force Base

Loading…

Next Passes (next 24 hours)

TLE

FreshSource: CelesTrak SupGP

Epoch: Sep 15, 2026, 02:49 UTC

1 67600C 26018M   26258.11784722  .00005382  00000+0  16705-3 0  2588
2 67600  97.2853 321.6147 0000976  80.3549 255.9777 15.33438671    14

Track STARLINK-36640 in real time with AllMySat

Download on the App Store